SCP
0 0 0 0 0 0 0 0 0 0 0 0 0 0 0 0 0 0 0 -0 -0 -0 0 -0 0 0 0 0 0 0 0 0 0 0 0 0 0 0
0 0 0 0 0 0 0 0 0 0 0 0 0 0 0 0 0 0 0 0 0 0 0 0 0 0 0 0 0 0 0 0 0 0 -0 0 0 0
0 0 0 0 0 0 0 0 0 0 0 0 0 0 0 0 0 0 0 0 0 0 0 0 0 0 0 0 0 0 0 0 -0 0 0 0 0 0
0 1 0 0 0 0 0 0 0 0 0 0 0 0 0 0 0 0 0 0 0 -0 -0 0 0 0 0 0 0 0 0 0 0 0 0 0 0 0
0 0 0 0 0 0 0 0 0 0 0 0 0 0 0 0 0 0 0 0 0 0 0 0 0 0 0 0 0 0 0 0 0 0 0 0 0 0
0 0 0 0 0 0 0 0 0 0 0 0 0 0 0 0 0 0 0 0 0 0 0 -0 0 0 0 0 0 0 0 0 0 0 0 0 0 0
0 0 0 0 0 0 0 0 0 0 0 0 0 0 0 0 0 0 0 0 0 0 0 -0 -0 -0 0 0 0 0 0 0 0 0 0 0 0 0
0 0 0 0 0 0 0 0 0 0 0 0 0 0 0 0 0 0 0 0 0 0 0 -0 -0 -0 0 0 0 0 0 0 0 0 0 0 0 0
0 0 0 0 0 0 0 0 0 0 0 0 0 0 0 0 0 0 0 0 0 0 0 -0 -0 -0 -0 0 0 0 0 0 0 0 0 0 0 0
0 0 0 0 0 0 0 0 0 0 0 0 0 0 0 0 0 0 0 0 0 0 0 0 0 -0 0 -0 0 0 0 0 0 0 0 0 0 0
0 0 0 0 0 0 0 0 0 0 0 0 0 0 0 0 0 0 0 0 0 0 0 0 0 0 -0 0 0 0 0 0 0 0 0 0 0 0
0 0 0 0 0 0 0 0 0 0 0 0 0 0 0 0 0 0 0 0 0 0 0 0 0 0 0 0 0 0 0 0 0 0 0 0 0 0
0 0 0 0 0 0 0 0 0 0 0 0 0 0 0 0 0 0 0 0 0 0 0 0 0 0 0 0 0 0 0 0 0 0 0 0 0 0
0 0 0 0 0 0 0 0 0 0 0 0 0 0 0 0 0 0 0 0 0 0 0 0 0 0 0 0 0 0 0 0 0 0 0 0 0 0
0 0 0 0 0 0 0 0 0 0 0 0 0 0 0 0 0 0 0 0 0 0 0 0 0 0 0 0 0 0 0 0 0 0 0 0 0 0
0 0 -0 -0 0 0 0 0 0 0 0 0 0 0 0 0 0 0 0 0 0 0 0 0 0 0 0 0 0 0 0 0 0 0 0 0 0 0
-0 -0 0 0 0 0 0 0 0 0 0 0 0 0 0 0 0 0 0 0 0 0 0 0 0 0 0 0 0 0 0 0 0 0 0 0 0 0
0 0 0 -0 -0 -0 -0 -0 0 0 0 0 0 0 0 0 0 0 0 0 0 0 0 0 0 0 0 0 0 0 0 0 0 0 0 0 0 0
-0 -0 -0 -0 -0 0 0 -0 -0 -0 -0 0 0 0 0 0 0 -0 -0 -0 0 0 0 0 0 0 0 0 0 0 0 0 0 0 0 0 0 0
0 0 0 0 0 0 0 0 0 0 0 -0 -0 -0 0 0 0 -0 -0 0 0 0 0 0 0 0 0 0 0 0 0 0 0 0 0 0 0 0
0 0 0 0 0 0 0 0 0 0 0 0 0 0 0 0 -0 -0 0 -0 0 0 0 0 0 0 0 0 0 0 0 0 0 0 0 0 0 0
0 0 0 0 0 0 0 0 0 0 0 0 0 0 0 0 -0 0 0 0 0 0 0 0 0 0 0 0 0 0 0 0 0 0 0 0 0 0
0 0 0 0 0 0 0 0 0 0 0 0 0 0 -0 0 0 0 0 0 0 0 0 0 0 0 0 0 0 0 0 0 0 0 0 0 0 0
Wind_Speed_500mb
43 44 46 45 46 48 49 48 49 49 50 53 46 47 41 43 38 47 57 61 63 61 64 64 56 51 58 57 56 58 60 66 61 64 64 60 52 46
54 56 57 59 60 61 63 62 58 61 65 49 58 57 47 40 62 63 57 50 51 58 51 48 44 46 50 57 58 59 62 65 64 60 64 62 55 45
63 65 68 67 69 69 72 72 68 66 73 73 64 56 55 72 61 60 50 44 63 47 53 53 56 51 56 54 56 54 54 57 66 61 62 62 58 48
73 71 75 73 76 79 80 84 82 80 81 87 79 76 70 57 50 61 45 58 57 45 45 46 36 41 43 49 50 49 46 51 56 61 60 64 61 55
62 69 78 81 83 82 81 82 84 87 79 83 86 84 80 65 55 55 72 86 46 46 51 45 42 37 46 47 49 52 53 49 51 57 62 65 66 60
72 71 70 65 65 66 70 74 78 80 83 87 89 85 84 80 79 75 73 62 52 44 43 39 36 36 34 39 40 47 51 49 45 52 60 65 64 54
82 82 79 73 67 56 51 55 59 64 69 73 81 76 71 69 67 65 61 49 50 55 60 55 54 43 37 38 43 43 40 41 43 50 57 57 60 41
95 95 94 92 88 87 88 86 79 71 73 72 69 66 69 67 58 55 55 57 45 39 54 66 68 65 50 48 46 41 34 35 36 45 56 55 47 37
81 83 87 88 85 84 88 89 91 88 78 73 78 83 84 84 74 71 75 77 59 49 63 77 85 74 54 52 46 39 34 33 30 37 48 48 43 36
93 96 98 99 99 99 99 94 88 84 82 86 88 83 81 77 70 75 80 84 82 74 68 67 63 54 46 51 47 34 32 30 26 29 31 35 34 33
86 83 82 87 87 88 90 91 92 96 90 88 82 84 91 92 79 65 64 65 63 64 69 62 52 38 33 39 34 29 30 27 23 30 31 31 31 33
64 63 62 64 60 56 56 60 64 67 58 59 55 52 51 57 63 77 76 68 66 58 58 52 47 27 25 31 35 27 23 24 26 28 31 34 36 37
58 59 55 51 41 40 43 47 54 49 48 43 51 58 59 53 52 59 63 68 66 63 53 42 41 39 34 28 23 31 28 25 26 29 31 31 32 33
59 59 58 52 54 52 54 55 57 58 56 57 63 68 69 65 54 50 50 59 63 62 53 53 52 43 42 37 30 39 33 26 24 23 22 25 26 24
37 38 39 47 53 58 57 55 54 53 63 73 77 78 72 63 54 40 35 44 59 65 60 55 45 39 46 47 42 44 24 24 21 17 17 20 20 21
52 55 55 58 60 56 57 57 52 51 56 63 69 67 61 55 52 56 58 50 49 56 55 53 51 50 46 45 41 40 36 20 27 25 23 24 26 28
51 52 54 48 49 51 44 43 47 50 59 55 56 57 57 48 49 45 45 51 58 57 57 48 47 56 41 40 31 30 35 25 22 22 26 30 29 32
30 31 38 46 47 54 52 52 58 56 51 54 60 62 64 59 49 39 35 42 47 50 44 49 55 55 47 42 35 27 28 26 20 18 23 26 32 33
26 35 40 49 55 55 59 64 59 48 48 61 67 71 65 62 56 56 48 36 41 40 42 49 56 56 47 40 36 33 28 28 22 28 25 27 32 38
27 47 48 48 55 66 56 46 47 49 53 24 17 47 68 62 55 49 52 47 32 29 33 43 51 57 59 51 35 32 28 21 23 28 33 30 29 36
37 48 36 49 44 41 43 50 58 58 38 17 20 24 44 48 43 44 46 49 39 34 41 35 37 51 50 41 36 33 35 33 26 23 28 36 40 39
46 24 39 37 33 32 48 51 40 37 31 16 24 30 38 42 44 43 44 41 36 38 34 33 37 37 41 43 42 40 40 38 36 31 25 36 41 40
26 35 45 53 37 26 31 32 21 43 29 18 27 39 41 39 32 29 31 35 28 27 30 41 36 45 48 38 32 36 35 33 41 40 36 40 38 34
Wind_Direction_500mb
265 267 270 276 280 281 280 277 276 279 282 292 292 302 295 290 286 296 297 297 299 301 296 295 292 286 285 285 277 273 268 252 256 244 244 241 235 239
272 273 274 277 281 282 283 282 277 272 282 280 284 292 286 280 295 298 296 295 305 307 298 301 300 290 283 280 275 273 269 253 251 248 239 238 236 234
274 273 273 275 276 278 282 280 277 274 275 279 282 283 272 290 292 292 283 287 310 304 290 296 302 284 287 276 273 277 270 263 251 249 242 234 239 238
268 268 269 269 268 271 274 274 277 278 279 280 282 282 286 291 294 285 266 295 296 289 288 290 292 297 284 274 271 271 278 269 257 241 242 234 237 238
273 274 273 274 274 273 273 272 275 278 277 278 279 281 281 279 280 272 280 292 279 287 292 297 281 301 294 287 275 275 273 271 259 240 238 229 234 234
270 270 270 270 272 274 274 274 274 272 273 275 278 277 279 280 281 283 285 277 265 271 284 306 306 298 294 290 288 278 282 274 264 241 238 232 233 238
270 270 271 271 269 266 267 267 266 268 272 276 275 274 271 273 272 281 278 265 264 264 268 280 298 299 303 298 287 285 284 272 262 237 237 239 238 230
275 277 277 277 277 275 271 270 271 272 270 272 272 273 272 267 267 266 261 262 269 263 264 275 291 288 289 300 294 290 286 286 265 234 229 236 241 230
279 280 281 281 281 281 280 276 272 267 268 271 270 271 272 269 267 258 258 263 265 273 279 284 286 288 278 293 292 286 282 282 265 233 223 229 228 233
276 276 279 279 278 279 281 280 278 279 273 265 259 264 263 262 261 264 263 263 266 267 272 278 286 287 283 279 291 293 270 269 260 215 215 222 233 238
281 283 284 282 281 276 277 278 279 275 271 271 268 260 261 263 262 266 262 258 253 252 268 271 272 293 284 274 291 280 264 255 241 225 220 225 233 240
290 290 291 289 286 284 279 278 277 279 277 271 264 261 256 257 255 252 254 255 254 249 260 260 248 291 288 270 272 266 252 244 246 246 244 245 244 242
293 291 292 288 289 288 277 273 276 275 277 274 268 271 269 263 256 247 245 245 246 247 250 244 255 278 264 252 267 248 252 252 253 254 245 240 236 236
293 291 289 286 284 285 286 283 274 271 268 264 265 269 269 262 258 255 248 242 241 243 244 252 265 269 243 246 252 251 251 250 247 245 235 220 219 212
299 296 286 288 286 288 284 285 280 275 265 262 263 267 269 268 251 245 240 241 236 238 237 247 253 251 235 245 256 240 250 239 240 222 209 202 197 193
276 279 284 288 292 295 292 289 281 273 268 265 263 264 264 258 248 242 247 247 241 245 245 245 248 232 232 235 233 224 226 221 214 208 205 201 205 204
287 280 284 299 301 302 305 299 297 290 287 270 263 257 253 247 244 242 238 236 236 238 246 237 221 218 225 227 214 225 216 216 224 214 208 202 203 209
297 298 301 308 309 310 311 309 302 295 286 273 265 257 250 241 232 229 228 229 230 232 228 222 211 210 221 220 208 218 214 217 216 206 201 203 203 205
306 329 333 327 323 312 311 314 307 310 296 279 259 248 245 239 233 227 218 221 220 226 218 211 206 203 192 195 207 218 221 209 214 191 194 204 206 200
346 342 337 337 324 327 336 330 326 334 352 346 282 225 225 227 225 218 217 218 214 219 200 207 209 207 203 202 197 202 209 226 220 203 193 191 198 187
343 340 335 334 352 341 342 345 343 348 360 22 64 160 191 206 196 197 197 200 204 199 195 203 199 200 206 219 216 211 217 214 221 219 203 196 191 187
337 342 346 11 0 354 346 3 19 25 38 69 88 129 142 160 173 182 187 189 195 196 201 199 189 199 200 219 227 221 205 202 193 193 206 209 198 193
352 352 9 16 14 355 15 19 41 53 70 84 122 122 118 135 147 157 164 161 170 206 215 192 198 201 200 203 206 203 201 197 189 184 195 210 203 203
Wind_Speed_850mb
43 44 46 45 46 48 49 48 49 49 50 53 46 47 41 43 38 47 57 61 63 61 64 64 56 51 58 57 56 58 60 66 61 64 64 60 52 46
54 56 57 59 60 61 63 62 58 61 65 49 58 57 47 40 62 63 57 50 51 58 51 48 44 46 50 57 58 59 62 65 64 60 64 62 55 45
63 65 68 67 69 69 72 72 68 66 73 73 64 56 55 72 61 60 50 44 63 47 53 53 56 51 56 54 56 54 54 57 66 61 62 62 58 48
73 71 75 73 76 79 80 84 82 80 81 87 79 76 70 57 50 61 45 58 57 45 45 46 36 41 43 49 50 49 46 51 56 61 60 64 61 55
62 69 78 81 83 82 81 82 84 87 79 83 86 84 80 65 55 55 72 86 46 46 51 45 42 37 46 47 49 52 53 49 51 57 62 65 66 60
72 71 70 65 65 66 70 74 78 80 83 87 89 85 84 80 79 75 73 62 52 44 43 39 36 36 34 39 40 47 51 49 45 52 60 65 64 54
82 82 79 73 67 56 51 55 59 64 69 73 81 76 71 69 67 65 61 49 50 55 60 55 54 43 37 38 43 43 40 41 43 50 57 57 60 41
95 95 94 92 88 87 88 86 79 71 73 72 69 66 69 67 58 55 55 57 45 39 54 66 68 65 50 48 46 41 34 35 36 45 56 55 47 37
81 83 87 88 85 84 88 89 91 88 78 73 78 83 84 84 74 71 75 77 59 49 63 77 85 74 54 52 46 39 34 33 30 37 48 48 43 36
93 96 98 99 99 99 99 94 88 84 82 86 88 83 81 77 70 75 80 84 82 74 68 67 63 54 46 51 47 34 32 30 26 29 31 35 34 33
86 83 82 87 87 88 90 91 92 96 90 88 82 84 91 92 79 65 64 65 63 64 69 62 52 38 33 39 34 29 30 27 23 30 31 31 31 33
64 63 62 64 60 56 56 60 64 67 58 59 55 52 51 57 63 77 76 68 66 58 58 52 47 27 25 31 35 27 23 24 26 28 31 34 36 37
58 59 55 51 41 40 43 47 54 49 48 43 51 58 59 53 52 59 63 68 66 63 53 42 41 39 34 28 23 31 28 25 26 29 31 31 32 33
59 59 58 52 54 52 54 55 57 58 56 57 63 68 69 65 54 50 50 59 63 62 53 53 52 43 42 37 30 39 33 26 24 23 22 25 26 24
37 38 39 47 53 58 57 55 54 53 63 73 77 78 72 63 54 40 35 44 59 65 60 55 45 39 46 47 42 44 24 24 21 17 17 20 20 21
52 55 55 58 60 56 57 57 52 51 56 63 69 67 61 55 52 56 58 50 49 56 55 53 51 50 46 45 41 40 36 20 27 25 23 24 26 28
51 52 54 48 49 51 44 43 47 50 59 55 56 57 57 48 49 45 45 51 58 57 57 48 47 56 41 40 31 30 35 25 22 22 26 30 29 32
30 31 38 46 47 54 52 52 58 56 51 54 60 62 64 59 49 39 35 42 47 50 44 49 55 55 47 42 35 27 28 26 20 18 23 26 32 33
26 35 40 49 55 55 59 64 59 48 48 61 67 71 65 62 56 56 48 36 41 40 42 49 56 56 47 40 36 33 28 28 22 28 25 27 32 38
27 47 48 48 55 66 56 46 47 49 53 24 17 47 68 62 55 49 52 47 32 29 33 43 51 57 59 51 35 32 28 21 23 28 33 30 29 36
37 48 36 49 44 41 43 50 58 58 38 17 20 24 44 48 43 44 46 49 39 34 41 35 37 51 50 41 36 33 35 33 26 23 28 36 40 39
46 24 39 37 33 32 48 51 40 37 31 16 24 30 38 42 44 43 44 41 36 38 34 33 37 37 41 43 42 40 40 38 36 31 25 36 41 40
26 35 45 53 37 26 31 32 21 43 29 18 27 39 41 39 32 29 31 35 28 27 30 41 36 45 48 38 32 36 35 33 41 40 36 40 38 34
Wind_Direction_850mb
265 267 270 276 280 281 280 277 276 279 282 292 292 302 295 290 286 296 297 297 299 301 296 295 292 286 285 285 277 273 268 252 256 244 244 241 235 239
272 273 274 277 281 282 283 282 277 272 282 280 284 292 286 280 295 298 296 295 305 307 298 301 300 290 283 280 275 273 269 253 251 248 239 238 236 234
274 273 273 275 276 278 282 280 277 274 275 279 282 283 272 290 292 292 283 287 310 304 290 296 302 284 287 276 273 277 270 263 251 249 242 234 239 238
268 268 269 269 268 271 274 274 277 278 279 280 282 282 286 291 294 285 266 295 296 289 288 290 292 297 284 274 271 271 278 269 257 241 242 234 237 238
273 274 273 274 274 273 273 272 275 278 277 278 279 281 281 279 280 272 280 292 279 287 292 297 281 301 294 287 275 275 273 271 259 240 238 229 234 234
270 270 270 270 272 274 274 274 274 272 273 275 278 277 279 280 281 283 285 277 265 271 284 306 306 298 294 290 288 278 282 274 264 241 238 232 233 238
270 270 271 271 269 266 267 267 266 268 272 276 275 274 271 273 272 281 278 265 264 264 268 280 298 299 303 298 287 285 284 272 262 237 237 239 238 230
275 277 277 277 277 275 271 270 271 272 270 272 272 273 272 267 267 266 261 262 269 263 264 275 291 288 289 300 294 290 286 286 265 234 229 236 241 230
279 280 281 281 281 281 280 276 272 267 268 271 270 271 272 269 267 258 258 263 265 273 279 284 286 288 278 293 292 286 282 282 265 233 223 229 228 233
276 276 279 279 278 279 281 280 278 279 273 265 259 264 263 262 261 264 263 263 266 267 272 278 286 287 283 279 291 293 270 269 260 215 215 222 233 238
281 283 284 282 281 276 277 278 279 275 271 271 268 260 261 263 262 266 262 258 253 252 268 271 272 293 284 274 291 280 264 255 241 225 220 225 233 240
290 290 291 289 286 284 279 278 277 279 277 271 264 261 256 257 255 252 254 255 254 249 260 260 248 291 288 270 272 266 252 244 246 246 244 245 244 242
293 291 292 288 289 288 277 273 276 275 277 274 268 271 269 263 256 247 245 245 246 247 250 244 255 278 264 252 267 248 252 252 253 254 245 240 236 236
293 291 289 286 284 285 286 283 274 271 268 264 265 269 269 262 258 255 248 242 241 243 244 252 265 269 243 246 252 251 251 250 247 245 235 220 219 212
299 296 286 288 286 288 284 285 280 275 265 262 263 267 269 268 251 245 240 241 236 238 237 247 253 251 235 245 256 240 250 239 240 222 209 202 197 193
276 279 284 288 292 295 292 289 281 273 268 265 263 264 264 258 248 242 247 247 241 245 245 245 248 232 232 235 233 224 226 221 214 208 205 201 205 204
287 280 284 299 301 302 305 299 297 290 287 270 263 257 253 247 244 242 238 236 236 238 246 237 221 218 225 227 214 225 216 216 224 214 208 202 203 209
297 298 301 308 309 310 311 309 302 295 286 273 265 257 250 241 232 229 228 229 230 232 228 222 211 210 221 220 208 218 214 217 216 206 201 203 203 205
306 329 333 327 323 312 311 314 307 310 296 279 259 248 245 239 233 227 218 221 220 226 218 211 206 203 192 195 207 218 221 209 214 191 194 204 206 200
346 342 337 337 324 327 336 330 326 334 352 346 282 225 225 227 225 218 217 218 214 219 200 207 209 207 203 202 197 202 209 226 220 203 193 191 198 187
343 340 335 334 352 341 342 345 343 348 360 22 64 160 191 206 196 197 197 200 204 199 195 203 199 200 206 219 216 211 217 214 221 219 203 196 191 187
337 342 346 11 0 354 346 3 19 25 38 69 88 129 142 160 173 182 187 189 195 196 201 199 189 199 200 219 227 221 205 202 193 193 206 209 198 193
352 352 9 16 14 355 15 19 41 53 70 84 122 122 118 135 147 157 164 161 170 206 215 192 198 201 200 203 206 203 201 197 189 184 195 210 203 203